If you wish to contribute or participate in the discussions about articles you are invited to join SKYbrary as a registered user

La Gomera

From SKYbrary Wiki
GCGM
Revision as of 19:01, 28 November 2011 by Timo.Kouwenhoven (Talk | contribs)

(diff) ← Older revision | Latest revision (diff) | Newer revision → (diff)
Airport
ICAO: GCGM
Summary
Name La Gomera
Region Europe
Territory Canary Islands ES.gif
Location San Sebastián de la Gomera
Serving
Coordinates 28° 1' 50.407", -17° 12' 45.0731"
Close to Canarias Sea
Runways
Designator Length Width Surface ROPS
9/27 1500 m4,921.26 ft 30 m98.425 ft ASP /
METAR
Observation GCGM 191630Z VRB04KT 9999 SCT022 19/08 Q1020 RMK R09/VRB03KT ARP/VRB02KT
Station La Gomera
Date/Time 19 January 2017 16:30:00
Wind direction °
Wind speed 04 kts
Lowest cloud amount scattered clouds
Temperature 19°C
Dew point 8°C
Humidity 48%
QNH 1020 hPa
Weather condition n/a

WX
Tag(s) Volcanic Ash

La Gomera Airport (IATA: GMZ) is an airport located near the village of Alajeró, Spain, 34 km18.359 nm
34,000 m
111,548.557 ft
southwest by road from the Gomera island's capital city, San Sebastián de la Gomera.